DW8749 Weather Reports


Display with metric or nautical units.
time (UTC)temp
F
wind
direction
speed
MPH
gust
MPH
rain 1hr
in
rain 24hr
in
rain mn
in
humidity
%
barometer
mb
20260504213503 86 80 3.0 9.0 0.00 0.00 0.00 21 1000.9
20260504213006 85 113 3.0 9.0 0.00 0.00 0.00 22 1001.1
20260504212504 85 100 3.0 9.0 0.00 0.00 0.00 20 1001.2
20260504212009 85 109 2.0 9.0 0.00 0.00 0.00 20 1001.3
20260504211513 85 60 3.0 8.0 0.00 0.00 0.00 21 1001.3
20260504211007 85 77 1.0 8.0 0.00 0.00 0.00 21 1001.4
20260504210509 85 134 4.0 10.0 0.00 0.00 0.00 19 1001.4
20260504210023 86 134 4.0 14.0 0.00 0.00 0.00 19 1001.5
20260504205507 86 61 4.0 14.0 0.00 0.00 0.00 19 1001.6
20260504205008 87 118 3.0 12.0 0.00 0.00 0.00 21 1001.6
20260504204503 87 126 6.0 12.0 0.00 0.00 0.00 20 1001.7
20260504204005 87 134 3.0 12.0 0.00 0.00 0.00 19 1001.7
20260504203506 87 118 3.0 12.0 0.00 0.00 0.00 20 1001.7
20260504203012 87 84 4.0 12.0 0.00 0.00 0.00 21 1001.9
20260504202506 86 37 4.0 15.0 0.00 0.00 0.00 19 1002.0
20260504202007 86 92 1.0 15.0 0.00 0.00 0.00 20 1002.2
20260504201516 87 146 9.0 13.0 0.00 0.00 0.00 19 1002.3
20260504201008 86 76 1.0 8.0 0.00 0.00 0.00 20 1002.2
20260504200511 86 37 3.0 9.0 0.00 0.00 0.00 18 1002.4
20260504200023 86 105 3.0 10.0 0.00 0.00 0.00 22 1002.4
20260504195507 86 128 5.0 10.0 0.00 0.00 0.00 20 1002.5
20260504195004 86 49 2.0 11.0 0.00 0.00 0.00 22 1002.4
20260504194507 86 121 4.0 9.0 0.00 0.00 0.00 20 1002.5
20260504194006 86 66 4.0 9.0 0.00 0.00 0.00 22 1002.7
20260504193506 86 57 3.0 10.0 0.00 0.00 0.00 21 1002.7
20260504193014 86 100 4.0 11.0 0.00 0.00 0.00 20 1002.9
20260504192506 86 80 4.0 11.0 0.00 0.00 0.00 22 1002.9
20260504192007 86 65 5.0 11.0 0.00 0.00 0.00 20 1003.1
20260504191530 86 86 2.0 11.0 0.00 0.00 0.00 23 1003.1
20260504191008 85 36 1.0 6.0 0.00 0.00 0.00 22 1003.1
20260504190507 85 89 2.0 11.0 0.00 0.00 0.00 24 1003.1
20260504190026 85 133 2.0 15.0 0.00 0.00 0.00 21 1003.3
20260504185503 85 76 4.0 15.0 0.00 0.00 0.00 21 1003.4
20260504185004 85 347 6.0 11.0 0.00 0.00 0.00 20 1003.3
20260504184514 85 30 6.0 11.0 0.00 0.00 0.00 22 1003.4
20260504184004 85 53 5.0 12.0 0.00 0.00 0.00 22 1003.4
20260504183507 85 51 6.0 12.0 0.00 0.00 0.00 21 1003.4
20260504183016 85 73 4.0 12.0 0.00 0.00 0.00 23 1003.4
20260504182508 85 65 5.0 12.0 0.00 0.00 0.00 22 1003.5
20260504182011 85 67 6.0 16.0 0.00 0.00 0.00 22 1003.5
20260504181524 85 58 8.0 17.0 0.00 0.00 0.00 21 1003.5
20260504181008 85 54 7.0 17.0 0.00 0.00 0.00 22 1003.5
20260504180510 85 47 6.0 15.0 0.00 0.00 0.00 23 1003.6
20260504180028 84 43 7.0 16.0 0.00 0.00 0.00 24 1003.7
20260504175504 84 50 9.0 16.0 0.00 0.00 0.00 24 1003.9
20260504175007 84 43 7.0 12.0 0.00 0.00 0.00 24 1003.9
20260504174514 84 65 5.0 14.0 0.00 0.00 0.00 25 1003.9
20260504174004 84 43 7.0 14.0 0.00 0.00 0.00 23 1004.0
20260504173507 84 46 7.0 13.0 0.00 0.00 0.00 25 1004.0
20260504173019 83 57 4.0 13.0 0.00 0.00 0.00 28 1004.1
20260504172508 83 67 6.0 9.0 0.00 0.00 0.00 27 1004.1
20260504172010 82 76 3.0 9.0 0.00 0.00 0.00 32 1004.1
20260504171531 82 35 5.0 10.0 0.00 0.00 0.00 29 1004.2
20260504171009 82 28 5.0 10.0 0.00 0.00 0.00 28 1004.2
20260504170517 82 69 5.0 9.0 0.00 0.00 0.00 30 1004.3
20260504151009 74 5 3.0 9.0 0.00 0.00 0.00 33 1003.8
20260504150508 73 287 7.0 10.0 0.00 0.00 0.00 34 1004.0
20260504141008 64 246 3.0 7.0 0.00 0.00 0.00 43 1003.8
20260504140502 63 279 1.0 7.0 0.00 0.00 0.00 43 1003.8
20260504130511 58 255 3.0 8.0 0.00 0.00 0.00 52 1003.7
20260504110506 58 284 3.0 6.0 0.00 0.00 0.00 52 1003.4
20260504100505 61 182 4.0 12.0 0.00 0.00 0.00 47 1003.4
20260504082007 64 215 6.0 12.0 0.00 0.00 0.00 43 1004.0
20260504081517 64 210 4.0 10.0 0.00 0.00 0.00 43 1004.1
20260504081009 64 271 3.0 10.0 0.00 0.00 0.00 42 1004.1
20260504080507 64 195 3.0 10.0 0.00 0.00 0.00 42 1004.2
20260504050512 69 183 4.0 9.0 0.00 0.00 0.00 33 1005.5
20260504050022 69 173 3.0 7.0 0.00 0.00 0.00 33 1005.6
20260504045506 69 219 4.0 10.0 0.00 0.00 0.00 33 1005.6
20260504045009 69 195 4.0 10.0 0.00 0.00 0.00 33 1005.6
20260504044520 69 175 3.0 8.0 0.00 0.00 0.00 32 1005.6
20260504044005 70 150 4.0 8.0 0.00 0.00 0.00 32 1005.7
20260504043503 70 184 4.0 8.0 0.00 0.00 0.00 32 1005.6
20260504043010 70 173 3.0 8.0 0.00 0.00 0.00 31 1005.8
20260504042508 70 161 3.0 10.0 0.00 0.00 0.00 32 1005.9
20260504042007 70 161 5.0 12.0 0.00 0.00 0.00 31 1005.9
20260504041518 71 183 4.0 12.0 0.00 0.00 0.00 31 1005.9
20260504041006 71 164 3.0 8.0 0.00 0.00 0.00 30 1005.9
20260504040506 71 182 4.0 8.0 0.00 0.00 0.00 30 1006.0
20260504040038 72 145 3.0 8.0 0.00 0.00 0.00 29 1006.1
20260504035512 72 187 3.0 14.0 0.00 0.00 0.00 29 1006.0
20260504035010 72 205 5.0 14.0 0.00 0.00 0.00 28 1006.1
20260504034508 72 157 5.0 10.0 0.00 0.00 0.00 28 1006.2
20260504034002 73 206 4.0 10.0 0.00 0.00 0.00 27 1006.4
20260504033504 73 192 3.0 13.0 0.00 0.00 0.00 27 1006.3
20260504033013 73 173 4.0 13.0 0.00 0.00 0.00 27 1006.2
20260504032505 74 150 5.0 9.0 0.00 0.00 0.00 26 1006.2
20260504032008 74 156 3.0 9.0 0.00 0.00 0.00 26 1006.2
20260504031520 74 197 5.0 9.0 0.00 0.00 0.00 26 1006.2
20260504031008 73 192 3.0 7.0 0.00 0.00 0.00 26 1006.1
20260504030508 73 157 3.0 6.0 0.00 0.00 0.00 26 1006.2
20260504030025 72 142 2.0 5.0 0.00 0.00 0.00 28 1006.2
20260504025508 72 126 1.0 3.0 0.00 0.00 0.00 28 1006.2
20260504025009 72 72 1.0 7.0 0.00 0.00 0.00 28 1006.2
20260504024506 72 82 1.0 6.0 0.00 0.00 0.00 28 1006.1
20260504024008 72 175 4.0 6.0 0.00 0.00 0.00 28 1006.2
20260504023505 72 188 3.0 7.0 0.00 0.00 0.00 27 1005.9
20260504023014 73 159 3.0 7.0 0.00 0.00 0.00 27 1005.8
20260504022509 73 149 3.0 7.0 0.00 0.00 0.00 27 1005.7
20260504022008 73 175 3.0 7.0 0.00 0.00 0.00 27 1005.7
20260504021522 73 148 2.0 5.0 0.00 0.00 0.00 26 1005.6
20260504021006 73 146 2.0 5.0 0.00 0.00 0.00 26 1005.6
20260504020512 74 153 2.0 7.0 0.00 0.00 0.00 25 1005.6
20260504020025 74 173 2.0 7.0 0.00 0.00 0.00 25 1005.6
20260504015509 74 157 3.0 7.0 0.00 0.00 0.00 25 1005.6
20260504015001 75 179 2.0 5.0 0.00 0.00 0.00 25 1005.5
20260504014520 75 158 3.0 6.0 0.00 0.00 0.00 24 1005.5
20260504014005 76 174 3.0 6.0 0.00 0.00 0.00 24 1005.5
20260504013505 76 173 2.0 5.0 0.00 0.00 0.00 23 1005.5
20260504013017 77 167 3.0 7.0 0.00 0.00 0.00 23 1005.5
20260504012509 77 188 3.0 7.0 0.00 0.00 0.00 22 1005.5
20260504012008 78 161 2.0 6.0 0.00 0.00 0.00 22 1005.5
20260504011522 78 161 3.0 8.0 0.00 0.00 0.00 21 1005.6
20260504011010 79 173 3.0 11.0 0.00 0.00 0.00 20 1005.7
20260504010509 79 179 4.0 11.0 0.00 0.00 0.00 20 1005.6
20260504010024 79 187 5.0 10.0 0.00 0.00 0.00 19 1005.7
20260504005510 80 205 4.0 13.0 0.00 0.00 0.00 19 1005.7
20260504005006 80 217 6.0 13.0 0.00 0.00 0.00 19 1005.7
20260504004514 80 202 6.0 13.0 0.00 0.00 0.00 19 1005.8
20260504004006 80 212 7.0 13.0 0.00 0.00 0.00 19 1005.8
20260504003505 81 197 6.0 12.0 0.00 0.00 0.00 19 1005.9
20260504003017 81 182 5.0 12.0 0.00 0.00 0.00 18 1005.9
20260504002506 81 224 5.0 17.0 0.00 0.00 0.00 18 1006.0
20260504002008 82 211 8.0 17.0 0.00 0.00 0.00 18 1006.1
20260504001522 82 223 7.0 20.0 0.00 0.00 0.00 17 1006.1
20260504001007 83 249 8.0 20.0 0.00 0.00 0.00 17 1006.1
20260504000506 83 212 10.0 21.0 0.00 0.00 0.00 17 1006.2
20260504000026 83 215 11.0 21.0 0.00 0.00 0.00 18 1006.3
20260503235503 83 240 8.0 21.0 0.00 0.00 0.00 17 1006.4
20260503235006 83 229 8.0 20.0 0.00 0.00 0.00 16 1006.4
20260503234516 83 187 8.0 20.0 0.00 0.00 0.00 16 1006.4
20260503234006 83 215 10.0 17.0 0.00 0.00 0.00 16 1006.5
20260503233505 83 166 8.0 17.0 0.00 0.00 0.00 16 1006.5
20260503233023 83 180 7.0 17.0 0.00 0.00 0.00 16 1006.6
20260503232509 83 213 10.0 18.0 0.00 0.00 0.00 15 1006.7
20260503232010 83 206 9.0 21.0 0.00 0.00 0.00 15 1006.7
20260503231525 83 232 10.0 23.0 0.00 0.00 0.00 16 1006.8
20260503231013 84 219 11.0 22.0 0.00 0.00 0.00 16 1006.9
20260503230508 84 215 9.0 21.0 0.00 0.00 0.00 15 1007.0
20260503230012 84 271 10.0 19.0 0.00 0.00 0.00 15 1007.1
20260503225503 85 257 10.0 18.0 0.00 0.00 0.00 15 1006.9
20260503225012 85 201 6.0 17.0 0.00 0.00 0.00 16 1007.0
20260503224518 85 179 8.0 14.0 0.00 0.00 0.00 14 1006.9
20260503224007 85 262 7.0 18.0 0.00 0.00 0.00 15 1007.0
20260503223507 85 186 7.0 18.0 0.00 0.00 0.00 14 1007.1
20260503223023 85 187 6.0 14.0 0.00 0.00 0.00 15 1007.2
20260503222506 85 241 6.0 14.0 0.00 0.00 0.00 15 1007.3
20260503222010 86 186 6.0 20.0 0.00 0.00 0.00 14 1007.3
20260503221527 86 207 7.0 20.0 0.00 0.00 0.00 14 1007.4
20260503221010 86 183 9.0 19.0 0.00 0.00 0.00 14 1007.4
20260503220512 86 207 8.0 19.0 0.00 0.00 0.00 14 1007.6
20260503220016 86 233 6.0 15.0 0.00 0.00 0.00 14 1007.7
20260503215507 87 254 3.0 16.0 0.00 0.00 0.00 15 1007.8
20260503215007 87 231 8.0 16.0 0.00 0.00 0.00 14 1007.9
20260503214519 87 222 7.0 19.0 0.00 0.00 0.00 13 1007.8
20260503214008 87 278 9.0 18.0 0.00 0.00 0.00 13 1007.9